Wind_Speed
48 50 51 51 52 53 54 54 55 56 58 59 61 62 63 63 63 64 65 66 67 67 67 67 67 68 69 69 69 69 69 67 66 66 65 65 65 64
50 52 53 54 54 54 54 55 57 58 59 61 62 62 62 62 62 62 63 64 64 64 64 63 64 64 64 64 63 63 63 64 63 61 61 61 62 63
51 52 53 53 53 54 55 56 57 57 58 59 59 59 59 58 59 60 61 61 60 59 59 59 58 58 58 57 57 56 56 56 56 56 57 58 58 58
52 52 53 53 53 54 55 55 56 56 55 55 55 55 55 55 55 56 55 55 54 53 53 52 51 52 52 52 51 51 51 51 52 53 53 53 54 54
52 52 52 52 52 52 52 52 53 52 51 50 49 50 49 49 48 48 49 49 48 48 47 47 46 47 47 46 46 47 47 48 48 49 49 49 50 50
50 50 49 49 50 49 49 48 48 47 46 46 45 44 44 43 43 43 43 43 42 42 42 41 41 41 41 41 42 43 44 45 46 46 46 46 47 47
47 47 48 47 47 46 45 44 44 43 42 41 40 40 39 38 37 37 36 36 37 37 36 36 35 36 37 37 38 39 39 39 40 41 42 42 42 43
46 46 45 44 43 42 41 40 39 37 36 35 34 33 32 32 31 31 31 31 30 31 31 31 32 32 33 33 33 34 34 34 35 35 36 37 37 37
42 41 39 37 36 34 33 32 32 31 30 30 29 28 27 26 26 26 27 27 27 26 26 27 28 29 29 29 29 29 29 29 29 30 30 31 31 32
34 32 30 29 28 28 27 26 26 25 24 23 22 22 21 22 22 22 22 22 22 22 23 23 24 25 25 25 26 26 26 26 26 27 27 27 27 28
26 25 23 22 21 21 20 19 19 18 17 17 17 17 17 18 18 18 18 19 19 19 20 21 22 23 23 24 23 23 23 23 24 25 25 25 25 25
20 18 16 16 15 15 14 14 13 13 13 12 13 13 14 16 16 16 17 17 18 18 20 20 21 21 21 21 21 21 22 22 22 23 23 23 23 22
15 14 13 13 13 13 12 11 11 11 10 11 11 12 14 14 15 15 16 17 17 18 19 19 19 19 19 19 20 21 21 22 22 22 22 22 22 21
12 12 12 12 12 13 13 12 11 11 10 10 11 11 12 13 14 15 16 16 16 17 18 18 18 18 18 19 19 20 21 21 22 22 22 22 21 20
11 11 12 12 13 13 13 13 12 11 10 10 10 10 12 13 14 14 15 14 15 16 17 18 17 18 18 19 19 20 20 21 22 22 22 22 21 20
10 11 11 12 13 13 13 13 13 12 11 10 10 10 11 12 13 13 13 13 14 15 16 16 17 17 18 19 20 21 21 21 22 22 22 22 22 21
10 10 11 11 12 12 12 12 12 11 11 11 11 11 11 12 13 13 12 12 13 13 14 15 16 17 17 18 20 21 22 23 23 22 22 23 23 22
9 10 10 11 11 11 11 11 11 11 11 10 11 11 11 11 11 11 11 11 12 13 13 14 15 16 17 18 20 21 23 23 23 24 24 24 24 23
10 10 11 11 12 11 11 11 11 11 11 10 10 11 11 10 10 10 10 10 11 12 13 13 15 16 17 18 19 21 23 24 25 25 26 26 26 25
11 11 11 12 12 12 12 12 12 11 11 10 10 10 10 9 9 9 9 10 11 11 12 13 14 16 17 18 19 20 23 24 25 26 27 27 27 27
11 11 12 12 12 12 12 12 12 11 11 10 10 10 9 9 9 8 8 9 10 11 12 13 14 15 16 17 18 20 22 23 24 26 27 27 28 28
12 12 12 12 12 12 12 12 12 12 11 10 10 9 9 9 8 8 8 8 9 10 11 12 13 14 15 17 18 19 21 23 24 25 25 26 27 28
12 12 12 12 13 12 12 12 12 12 11 11 10 10 9 8 8 7 8 8 9 9 11 12 12 13 14 16 17 18 19 21 23 24 24 25 26 27
Wind_Direction
286 285 284 283 282 280 279 277 277 277 277 277 277 276 276 277 277 278 279 279 279 279 279 279 279 278 278 278 278 278 278 278 278 277 276 275 274 273
285 283 281 281 279 279 278 277 277 277 276 276 277 278 279 279 280 280 280 281 280 280 281 281 280 279 280 280 280 281 281 280 279 278 276 275 274 273
285 283 281 281 278 276 277 277 278 278 277 277 279 279 280 280 281 281 282 282 282 282 282 281 281 281 282 283 284 284 283 282 280 279 278 277 276 274
286 283 282 281 281 281 280 280 280 280 280 281 282 283 284 283 283 283 283 283 284 284 284 284 285 285 285 285 286 285 284 283 282 280 279 278 278 277
287 286 285 285 285 285 284 284 284 284 285 286 287 287 286 286 286 285 285 285 287 287 288 288 288 288 287 287 287 286 285 284 283 282 281 280 279 278
291 290 289 289 289 288 288 287 287 287 287 288 287 288 288 288 290 290 289 289 290 291 291 291 290 290 290 290 290 289 288 287 285 284 283 282 281 279
293 292 292 291 290 290 289 289 289 289 289 289 289 290 291 291 292 292 292 293 293 294 294 294 295 295 295 295 295 294 293 291 289 287 285 284 282 280
295 294 293 292 291 290 290 290 290 290 291 292 292 293 293 294 296 297 297 297 297 297 297 298 299 299 299 300 299 298 297 296 295 293 291 287 284 282
298 297 296 295 293 292 292 292 291 291 291 293 294 295 296 298 300 302 303 302 302 302 303 303 304 304 304 303 303 304 303 302 301 300 298 295 291 288
303 302 302 300 299 297 295 295 294 295 296 297 299 301 303 304 307 309 310 311 313 313 312 312 311 311 311 311 312 312 311 310 309 308 306 303 300 296
309 308 307 307 307 306 304 303 303 303 304 306 309 312 314 317 318 319 319 320 321 321 321 321 320 320 320 320 320 320 320 319 317 315 313 310 308 305
317 318 318 319 319 320 320 320 321 320 318 318 323 327 328 328 329 329 330 330 330 330 329 330 329 330 331 331 330 329 329 328 326 324 324 322 318 314
331 333 336 338 339 340 340 340 341 340 340 338 337 336 336 335 335 335 336 337 339 340 340 340 340 342 344 342 341 340 339 338 336 334 333 331 327 322
349 353 356 359 2 2 359 357 355 352 350 347 346 343 342 342 342 342 342 343 345 348 349 350 351 352 353 352 351 350 348 347 345 342 340 338 336 333
6 10 13 15 13 10 7 6 5 2 1 357 353 350 348 346 345 345 346 348 350 351 353 355 357 358 359 358 357 356 355 353 352 351 348 346 345 343
9 10 11 12 10 8 5 4 3 2 0 356 353 348 345 345 345 348 350 352 353 355 358 1 3 3 3 3 3 2 1 0 360 359 357 356 354 351
9 8 9 8 4 1 0 359 357 355 353 351 349 348 346 346 347 348 349 351 354 357 360 2 6 6 6 8 8 8 7 7 6 6 4 2 1 359
8 6 5 1 359 357 354 352 351 351 349 346 344 345 344 344 346 349 352 355 358 1 2 4 7 9 10 10 11 12 13 13 14 14 12 10 9 8
3 1 0 358 355 353 350 348 347 347 347 347 344 344 345 345 347 351 356 359 2 5 7 8 10 12 13 14 15 16 17 17 17 17 18 18 19 20
359 357 356 355 354 353 352 351 351 351 350 349 348 348 349 350 351 353 357 0 4 8 10 11 12 14 16 17 18 20 21 21 22 22 23 25 25 26
358 357 356 356 355 356 356 355 355 355 356 356 355 356 357 357 357 357 -0 3 8 11 12 13 14 16 17 18 19 20 22 23 24 25 27 28 30 31
358 358 358 358 358 358 358 358 359 359 359 359 358 358 360 1 2 4 6 6 8 12 14 15 17 18 19 20 20 21 22 24 25 27 29 32 34 36
358 360 0 1 1 0 1 1 2 3 4 4 3 2 3 4 4 6 8 11 13 16 17 18 19 20 21 22 22 22 24 25 27 29 31 33 35 37
Height
5772 5769 5766 5763 5761 5758 5755 5752 5750 5747 5743 5738 5734 5730 5727 5724 5721 5717 5714 5710 5706 5702 5698 5695 5692 5689 5686 5683 5681 5678 5676 5673 5671 5669 5667 5666 5665 5664
5759 5756 5753 5750 5746 5743 5740 5737 5734 5731 5727 5722 5717 5713 5710 5707 5703 5700 5695 5692 5688 5684 5681 5677 5673 5670 5668 5665 5662 5659 5657 5654 5652 5650 5648 5646 5645 5644
5745 5742 5739 5736 5732 5728 5725 5721 5717 5713 5710 5705 5701 5697 5693 5690 5686 5682 5679 5675 5672 5668 5665 5661 5658 5654 5651 5649 5645 5643 5640 5637 5635 5632 5630 5628 5627 5626
5731 5728 5724 5721 5717 5713 5709 5705 5701 5697 5693 5689 5685 5681 5678 5674 5671 5667 5664 5660 5657 5653 5650 5647 5644 5640 5637 5634 5631 5628 5625 5622 5619 5616 5614 5612 5610 5608
5717 5713 5709 5706 5702 5698 5694 5690 5686 5682 5678 5675 5671 5667 5663 5660 5657 5654 5650 5647 5643 5640 5637 5635 5631 5628 5624 5621 5617 5614 5611 5607 5604 5601 5598 5596 5594 5592
5703 5699 5695 5691 5687 5683 5680 5676 5672 5668 5665 5661 5658 5654 5651 5647 5644 5641 5638 5635 5631 5628 5625 5622 5619 5616 5613 5609 5605 5601 5598 5594 5590 5587 5584 5582 5579 5577
5689 5685 5681 5677 5673 5669 5666 5662 5659 5655 5652 5649 5646 5643 5640 5637 5634 5631 5628 5625 5621 5618 5615 5612 5609 5605 5602 5598 5594 5590 5586 5582 5578 5574 5571 5568 5565 5563
5676 5672 5668 5664 5660 5656 5653 5649 5647 5644 5641 5638 5635 5633 5630 5628 5625 5622 5619 5616 5613 5610 5607 5604 5600 5596 5593 5589 5585 5580 5576 5572 5568 5564 5560 5556 5553 5551
5664 5659 5655 5652 5648 5645 5642 5639 5636 5633 5631 5629 5627 5625 5623 5620 5618 5615 5612 5609 5606 5602 5600 5596 5592 5589 5585 5581 5577 5572 5568 5564 5559 5555 5551 5547 5543 5540
5653 5649 5645 5642 5639 5636 5633 5631 5628 5626 5624 5622 5620 5619 5616 5614 5612 5609 5606 5604 5600 5597 5594 5591 5587 5583 5579 5574 5570 5565 5561 5557 5552 5548 5543 5539 5534 5531
5646 5642 5639 5636 5632 5629 5626 5624 5622 5620 5619 5617 5616 5614 5612 5610 5608 5605 5603 5600 5597 5593 5590 5586 5582 5578 5574 5569 5565 5560 5556 5551 5546 5542 5537 5532 5528 5524
5641 5637 5635 5632 5629 5625 5623 5620 5618 5617 5616 5614 5613 5611 5609 5607 5605 5602 5600 5597 5594 5590 5587 5583 5578 5574 5570 5565 5561 5556 5551 5547 5542 5537 5532 5527 5522 5518
5638 5635 5632 5629 5627 5624 5621 5619 5617 5615 5614 5613 5611 5610 5608 5606 5603 5600 5597 5594 5591 5588 5584 5580 5576 5571 5567 5563 5558 5553 5548 5543 5538 5533 5528 5523 5518 5514
5637 5634 5632 5629 5626 5623 5621 5619 5617 5615 5613 5612 5610 5609 5607 5605 5602 5599 5596 5593 5589 5586 5582 5578 5574 5570 5566 5561 5557 5552 5547 5542 5537 5531 5525 5520 5515 5510
5638 5635 5632 5630 5627 5624 5622 5619 5617 5615 5613 5612 5610 5608 5606 5603 5601 5598 5595 5592 5589 5585 5581 5577 5574 5569 5565 5561 5556 5552 5547 5541 5535 5530 5524 5518 5513 5508
5638 5636 5633 5630 5628 5625 5623 5620 5618 5615 5613 5611 5609 5607 5605 5602 5600 5597 5594 5591 5588 5585 5581 5578 5574 5570 5566 5561 5557 5552 5546 5541 5535 5529 5523 5517 5511 5506
5639 5637 5634 5632 5629 5626 5624 5621 5618 5616 5613 5611 5609 5607 5604 5602 5599 5596 5593 5591 5588 5584 5581 5578 5574 5570 5566 5562 5557 5552 5547 5541 5535 5530 5524 5518 5511 5505
5640 5637 5635 5632 5629 5627 5624 5621 5618 5616 5613 5611 5608 5606 5604 5601 5599 5596 5593 5591 5588 5585 5582 5578 5575 5571 5567 5563 5559 5554 5548 5543 5537 5531 5525 5519 5513 5507
5641 5638 5635 5632 5630 5627 5624 5621 5618 5615 5613 5610 5608 5605 5603 5601 5598 5596 5593 5591 5588 5585 5582 5579 5576 5572 5569 5565 5560 5555 5551 5545 5539 5533 5527 5521 5515 5509
5641 5638 5636 5633 5630 5627 5624 5621 5618 5615 5612 5610 5607 5605 5603 5600 5598 5596 5594 5591 5589 5586 5583 5580 5577 5574 5570 5566 5562 5558 5553 5548 5542 5536 5531 5525 5519 5513
5641 5639 5636 5633 5630 5627 5624 5621 5618 5615 5613 5610 5607 5605 5603 5600 5598 5596 5594 5592 5589 5587 5584 5582 5578 5575 5572 5568 5564 5560 5556 5551 5546 5540 5535 5529 5524 5518
5642 5639 5636 5633 5630 5627 5624 5621 5618 5615 5613 5610 5607 5605 5603 5600 5598 5596 5594 5592 5590 5588 5586 5583 5580 5577 5574 5570 5567 5563 5559 5554 5549 5544 5539 5535 5530 5524
5642 5639 5636 5634 5631 5628 5625 5622 5619 5616 5613 5610 5608 5605 5603 5601 5599 5597 5595 5593 5591 5589 5587 5584 5582 5579 5576 5573 5569 5566 5562 5558 5554 5549 5544 5539 5535 5530